Flag for U.S.A. Weather past 2 weeks in Midland, Texas, U.S.A.

Now
82 °F

Clear.


Feels Like: 82 °F
Forecast: 75 / 94 °F
Wind: 8 mph from South

Location: Midland - Midland Airpark

Current Time: Aug 28, 2014 at 3:17:44 AM

Latest Report: Aug 28, 2014 at 2:55 AM


Visibility: 10 mi

Pressure: 30.03 "Hg

Humidity: 45%

Dew point: 59 °F

Location of MidlandLocation

Historic Weather in Midland — Graph

°F

Midland temperature yesterday

Maximum temperature yesterday: 96 °F (at 3:55 PM)
Minimum temperature yesterday: 75 °F (at 7:15 AM)
Average temperature yesterday: 86 °F

Past Weeks' High & Low Weather Summary

 TemperatureHumidityPressure
High99 °F (Aug 15, 4:15 PM)86% (Aug 13, 5:55 AM)30.21 "Hg (Aug 13, 5:55 AM)
Low68 °F (Aug 19, 7:35 AM)17% (Aug 26, 5:35 PM)29.84 "Hg (Aug 19, 6:55 PM)
Average85 °F44%30.02 "Hg
* Reported Aug 13 2:15 AM — Aug 28 2:15 AM, Midland, Weather by CustomWeather, © 2014

Note: Actual official high and low records may vary slightly from our data, if they occured in-between our weather recording intervals... More about our weather records

Advertising

Midland weather history for previous 24 hours

 ConditionsComfort  
Time TempWeatherWind HumidityBarometerVisibility
2:15 AM
Aug 28
83 °FClear.9 mph44%30.03 "Hg10 mi
1:55 AM83 °FClear.9 mph45%30.04 "Hg10 mi
1:35 AM83 °FClear.9 mph45%30.04 "Hg10 mi
1:15 AM83 °FClear.12 mph45%30.04 "Hg10 mi
12:55 AM84 °FClear.10 mph45%30.05 "Hg10 mi
12:35 AM84 °FClear.10 mph44%30.05 "Hg10 mi
12:15 AM85 °FClear.9 mph44%30.05 "Hg10 mi
11:55 PM
Aug 27
85 °FClear.9 mph42%30.05 "Hg10 mi
11:35 PM86 °FClear.9 mph42%30.06 "Hg10 mi
11:15 PM86 °FClear.9 mph41%30.06 "Hg10 mi
10:55 PM86 °FPassing clouds.10 mph41%30.06 "Hg10 mi
10:35 PM86 °FPassing clouds.9 mph40%30.06 "Hg10 mi
10:15 PM87 °FPassing clouds.9 mph39%30.05 "Hg10 mi
9:55 PM87 °FPassing clouds.10 mph40%30.05 "Hg10 mi
9:15 PM87 °FSunny.10 mph39%30.03 "Hg10 mi
8:55 PM88 °FSunny.12 mph38%30.03 "Hg10 mi
8:35 PM89 °FSunny.9 mph35%30.03 "Hg10 mi
8:15 PM91 °FSunny.10 mph30%30.02 "Hg10 mi
7:55 PM93 °FSunny.5 mph26%30.02 "Hg10 mi
7:35 PM94 °FSunny.6 mph25%30.01 "Hg10 mi
7:15 PM94 °FSunny.6 mph25%30.02 "Hg10 mi
6:55 PM94 °FSunny.7 mph25%30.01 "Hg10 mi
6:35 PM94 °FSunny.5 mph24%30.02 "Hg10 mi
6:15 PM94 °FSunny.6 mph24%30.02 "Hg10 mi
5:55 PM95 °FSunny.5 mph24%30.02 "Hg10 mi
5:35 PM95 °FScattered clouds.6 mph24%30.02 "Hg10 mi
5:15 PM95 °FSunny.3 mph25%30.03 "Hg10 mi
4:55 PM95 °FSunny.6 mph25%30.03 "Hg10 mi
4:35 PM95 °FScattered clouds.6 mph25%30.04 "Hg10 mi
4:15 PM94 °FSunny.6 mph26%30.04 "Hg10 mi
3:55 PM96 °FScattered clouds.12 mph24%30.05 "Hg10 mi
3:15 PM96 °FScattered clouds.No wind25%30.07 "Hg10 mi
2:55 PM95 °FScattered clouds.6 mph26%30.08 "Hg10 mi
2:35 PM95 °FScattered clouds.3 mph26%30.09 "Hg10 mi
2:15 PM95 °FScattered clouds.8 mph27%30.10 "Hg10 mi
1:55 PM94 °FSunny.No wind27%30.11 "Hg10 mi
12:55 PM92 °FSunny.3 mph30%30.13 "Hg10 mi
12:35 PM92 °FSunny.3 mph29%30.13 "Hg10 mi
12:15 PM91 °FSunny.8 mph31%30.14 "Hg10 mi
11:55 AM89 °FSunny.No wind36%30.14 "Hg10 mi
11:15 AM88 °FSunny.7 mph38%30.14 "Hg10 mi
10:55 AM87 °FSunny.8 mph41%30.14 "Hg10 mi
9:55 AM82 °FSunny.9 mph49%30.14 "Hg10 mi
9:15 AM81 °FSunny.7 mph48%30.14 "Hg10 mi
8:55 AM79 °FSunny.7 mph48%30.14 "Hg10 mi
8:35 AM78 °FSunny.5 mph49%30.13 "Hg10 mi
8:15 AM76 °FClear.No wind52%30.13 "Hg10 mi
7:55 AM75 °FClear.6 mph53%30.12 "Hg10 mi
7:35 AM75 °FClear.5 mph54%30.11 "Hg10 mi
7:15 AM75 °FClear.3 mph54%30.10 "Hg10 mi
6:55 AM75 °FClear.3 mph53%30.10 "Hg10 mi
6:35 AM76 °FClear.6 mph52%30.09 "Hg10 mi
6:15 AM76 °FClear.6 mph53%30.09 "Hg10 mi
5:35 AM76 °FClear.5 mph56%30.08 "Hg10 mi
5:15 AM76 °FClear.7 mph56%30.08 "Hg10 mi
4:55 AM77 °FClear.8 mph55%30.08 "Hg10 mi
4:35 AM77 °FClear.6 mph53%30.08 "Hg10 mi
4:15 AM78 °FClear.5 mph51%30.08 "Hg10 mi
3:35 AM79 °FClear.7 mph48%30.09 "Hg10 mi
3:15 AM80 °FClear.8 mph46%30.09 "Hg10 mi
Weather by CustomWeather, © 2014

See weather overviewHow to use our weather pages